This demonstration page uses our WeatherBlox Daily Observations layout. Learn more.

Left ArrowRight Arrow

Hourly Observations for August 13, 2022

Temp ( °F °C ) Dew Point ( °F °C ) Humidity (%) Winds ( mph kmh ) Pressure ( in mb ) Visibility ( mi km ) Precip ( " mm )
12:53 am 00:53 Clear 71 21.7 67 19.4 87 87 NW 3 6 30.01 1016 10 16 0.00 0.00
1:53 am 01:53 Clear 71 21.7 66 18.9 84 84 Calm 29.99 1016 10 16 0.01 0.13
2:53 am 02:53 Clear 69 20.6 66 18.9 90 90 Calm 30.00 1016 10 16 0.01 0.13
3:53 am 03:53 Mostly Cloudy 70 21.1 68 20 93 93 NNE 3 6 30.01 1016 10 16 0.00 0.00
4:53 am 04:53 Partly Cloudy 72 22.2 70 21.1 93 93 ENE 5 7 30.00 1016 10 16 0.00 0.00
5:16 am 05:16 Cloudy 73 22.8 70 21.1 90 90 NE 8 13 30.02 1017 10 16 0.00 0.00
5:38 am 05:38 Cloudy 73 22.8 70 21.1 90 90 ENE 12 19 30.02 1017 10 16 0.00 0.00
5:53 am 05:53 Cloudy 74 23.3 70 21.1 87 87 ENE 8 13 30.02 1017 10 16 0.00 0.00
6:03 am 06:03 Cloudy 73 22.8 70 21.1 90 90 ENE 8 13 30.03 1017 10 16 0.00 0.00
6:12 am 06:12 Cloudy 73 22.8 70 21.1 90 90 E 6 9 30.03 1017 10 16 0.00 0.00
6:19 am 06:19 Mostly Cloudy 73 22.8 69 20.6 87 87 ENE 7 11 30.03 1017 10 16 0.00 0.00
6:30 am 06:30 Partly Cloudy 73 22.8 69 20.6 87 87 ENE 9 15 30.03 1017 10 16 0.00 0.00
6:53 am 06:53 Mostly Cloudy 73 22.8 69 20.6 87 87 ENE 7 11 30.04 1017 10 16 0.00 0.00
7:19 am 07:19 Partly Cloudy 73 22.8 67 19.4 81 81 E 6 9 30.04 1017 10 16 0.00 0.00
7:53 am 07:53 Mostly Sunny 73 22.8 67 19.4 81 81 E 8 13 30.05 1018 10 16 0.00 0.00
8:10 am 08:10 Mostly Sunny 73 22.8 67 19.4 81 81 VRB 6 9 30.05 1018 10 16 0.00 0.00
8:53 am 08:53 Mostly Sunny 75 23.9 67 19.4 76 76 ESE 6 9 30.08 1019 10 16 0.00 0.00
9:53 am 09:53 Mostly Cloudy 75 23.9 66 18.9 74 74 E 9 15 30.10 1019 10 16 0.00 0.00
10:12 am 10:12 Mostly Cloudy 76 24.4 66 18.9 71 71 E 6 9 30.09 1019 10 16 0.00 0.00
10:42 am 10:42 Partly Cloudy 77 25 65 18.3 66 66 ESE 8 13 30.09 1019 10 16 0.00 0.00
10:53 am 10:53 Mostly Cloudy 78 25.6 66 18.9 67 67 ESE 10 17 30.10 1019 10 16 0.00 0.00
11:05 am 11:05 Partly Cloudy 78 25.6 65 18.3 64 64 ESE 12 19 30.09 1019 10 16 0.00 0.00
11:53 am 11:53 Mostly Cloudy 79 26.1 66 18.9 65 65 ENE 13 20 30.10 1019 10 16 0.00 0.00
12:53 pm 12:53 Mostly Cloudy 80 26.7 65 18.3 60 60 E 7 11 30.09 1019 10 16 0.00 0.00
1:53 pm 13:53 Mostly Cloudy 82 27.8 65 18.3 56 56 E 7 11 30.08 1019 10 16 0.00 0.00
2:53 pm 14:53 Partly Cloudy 82 27.8 66 18.9 58 58 SSE 9 15 30.06 1018 10 16 0.00 0.00
3:53 pm 15:53 Partly Cloudy 83 28.3 65 18.3 55 55 VRB 5 7 30.04 1017 10 16 0.00 0.00
4:53 pm 16:53 Mostly Cloudy 82 27.8 65 18.3 56 56 E 8 13 30.04 1017 10 16 0.00 0.00
5:53 pm 17:53 Mostly Sunny 84 28.9 64 17.8 51 51 E 6 9 30.02 1017 10 16 0.00 0.00
6:53 pm 18:53 Sunny 83 28.3 65 18.3 55 55 undefined N/A 30.01 1016 10 16 0.00 0.00
7:53 pm 19:53 Sunny 82 27.8 64 17.8 55 55 SE 3 6 30.01 1016 10 16 0.00 0.00
8:53 pm 20:53 Clear 80 26.7 65 18.3 60 60 ESE 3 6 30.03 1017 10 16 0.00 0.00
9:53 pm 21:53 Clear 73 22.8 67 19.4 81 81 Calm 30.04 1017 10 16 0.00 0.00
10:53 pm 22:53 Clear 72 22.2 68 20 87 87 Calm 30.05 1018 10 16 0.00 0.00
11:53 pm 23:53 Clear 71 21.7 67 19.4 87 87 Calm 30.06 1018 10 16 0.01 0.13

Powered by AerisWeather